Regional Weather Roundup
Issued by NWS San Diego, CA

Home | Current Version | Previous Version | Text Only | Print | Product List | Glossary On
Versions: 1 2 3 4 5 6 7 8 9 10 11 12 13 14 15 16 17 18 19 20 21 22 23 24 25 26 27 28 29 30 31 32 33 34 35 36 37 38 39 40 41 42 43 44 45 46 47 48 49 50
000
ASUS46 KSGX 231211
RWRSGX

SAN DIEGO HOURLY WEATHER ROUNDUP
NATIONAL WEATHER SERVICE SAN DIEGO CA
500 AM PDT MON OCT 23 2017

NOTE: "FAIR" INDICATES FEW OR NO CLOUDS BELOW 12,000 FEET WITH NO
SIGNIFICANT WEATHER AND/OR OBSTRUCTIONS TO VISIBILITY.

CAZ042-043-060-061-PZZ750-775-231300-

GREATER SAN DIEGO AREA

CITY           SKY/WX    TMP DP  RH WIND       PRES   REMARKS
SAN DIEGO AP   CLEAR     65  38  36 CALM      30.04S
NATIONAL CITY    N/A     60  43  52 CALM      30.05S
IMPERIAL BEACH CLEAR    N/A N/A N/A MISG      30.03S
BROWN FIELD    CLEAR     65  33  30 NE5       30.04S
MIRAMAR MCAS   CLEAR     69  32  25 E8        30.03F
MONTGOMERY FLD CLEAR     66  34  30 CALM      30.04S
GILLESPIE FLD  FAIR      57  34  41 CALM      30.05S

$$

NORTH SAN DIEGO COUNTY

CITY           SKY/WX    TMP DP  RH WIND       PRES   REMARKS
CAMP PENDLETON CLEAR     50  40  68 CALM      30.03S
OCEANSIDE AP   CLEAR     54  42  64 CALM      30.02F
OCEANSIDE HBR    N/A     61  45  55 CALM      30.05S
VISTA            N/A     70  37  30 CALM      30.00F
CARLSBAD       CLEAR     65  36  34 CALM      30.03S
DEL MAR          N/A     68  38  33 CALM      30.04S
LA JOLLA SCRIP   N/A     68  46  44 CALM      30.02S
ESCONDIDO        N/A     60  41  50 CALM      30.05F
SAN MARCOS       N/A     69  35  28 CALM      30.04F
POWAY            N/A     54  38  54 CALM      30.06S

$$

EAST SAN DIEGO COUNTY

CITY           SKY/WX    TMP DP  RH WIND       PRES   REMARKS
RAMONA         CLEAR     55  31  39 CALM      30.09S
SANTEE LAKES     N/A     55  36  48 CALM      30.04S
LA MESA          N/A     69  33  26 CALM      29.96F
JAMUL            N/A     61  32  33 CALM      30.04F
CAMPO            N/A     69  28  21 S5        30.13R

$$

ORANGE COUNTY AND THE LOS ANGELES BASIN

CITY           SKY/WX    TMP DP  RH WIND       PRES   REMARKS
JOHN WAYNE AP  CLEAR     63  48  58 CALM      30.03R
LAGUNA BEACH     N/A     58  41  54 NW2       29.98R
LAKE FOREST FR   N/A     83  25  12 NE8       29.89S
HUNTINGTON BCH   N/A     57  52  83 CALM      30.04S
LOS ALAMITOS   FAIR      63  44  50 CALM      30.02F
FULLERTON      CLEAR     63  46  54 CALM      30.02S
LONG BEACH     CLEAR     67  41  38 NW3       30.03S
L.A. AP        CLEAR     71  38  29 CALM      30.04S
L.A. DOWNTOWN  CLEAR     70  36  28 CALM      30.03S

$$

THE INLAND EMPIRE

CITY           SKY/WX    TMP DP  RH WIND       PRES   REMARKS
CORONA         CLEAR     77  33  20 SE9       30.07F
CHINO          CLEAR     58  45  62 CALM      30.09S
ONTARIO        CLEAR     65  35  33 NW7       30.08S
SAN BERNARDINO FAIR      62  30  30 E3        30.12S
RIVERSIDE AP   CLEAR     65  36  34 E7        30.09S
MARCH ARB      CLEAR     58  31  36 N6        30.13S
FRENCH VALLEY  FAIR      59  32  36 N5        30.13S

$$

SAN BERNARDINO AND RIVERSIDE COUNTY MOUNTAINS

CITY           SKY/WX    TMP DP  RH WIND       PRES   REMARKS
BIG BEAR AP    CLEAR     32  21  64 CALM      30.50S

$$

SOUTHERN DESERT INCLUDING THE COACHELLA VALLEY

CITY           SKY/WX    TMP DP  RH WIND       PRES   REMARKS
PALM SPRINGS   CLEAR     73  34  23 N9        30.12R
THOUSAND PALMS   N/A     68  32  27 N2        30.07R
PALM DESERT      N/A     64  42  45 CALM      31.66S
THERMAL        CLEAR     62  38  40 N7        30.04S
BLYTHE         CLEAR     64  25  22 NW3       30.11R
IMPERIAL AP    CLEAR     63  28  26 W7        30.05R
EL CENTRO NAS  CLEAR     63  20  19 W6        30.07S
YUMA AZ        CLEAR     63  35  35 CALM      30.05S

$$

UPPER DESERT

CITY           SKY/WX    TMP DP  RH WIND       PRES   REMARKS
VICTORVILLE AP CLEAR     52  27  37 CALM      30.30S
HESPERIA         N/A     53  30  41 CALM      30.37R
PALMDALE       CLEAR     48  27  44 CALM      30.30R
LANCASTER      CLEAR     47  25  42 W3        30.30R
EDWARDS AFB    CLEAR     46  19  34 CALM      30.27S
DAGGETT        CLEAR     58  28  32 W10       30.27R
29 PALMS N     CLEAR     62  25  24 NW6       30.31R
NEEDLES        CLEAR     66  28  24 W6        30.16R

$$

REGIONAL REPORTS

CITY           SKY/WX    TMP DP  RH WIND       PRES   REMARKS
SANTA BARBARA  CLEAR     54  43  66 CALM      30.04F
SANDBERG       CLEAR     67  24  19 E21G30    30.35S
LAS VEGAS NV   CLEAR     60  27  28 W3        30.27R
PHOENIX AZ     CLEAR     64  34  32 SW5       30.09R
TIJUANA        CLEAR     64  37  36 CALM      30.06
ENSENADA NW      N/A     72  32  22 CALM      29.99S

$$

OFFSHORE ISLANDS

CITY           SKY/WX    TMP DP  RH WIND       PRES   REMARKS
CATALINA ARPT  CLEAR     79  33  19 NE12      30.12S
SAN NICOLAS IS CLEAR     75   8   7 NW6       30.05S

$$

MARINE AND OFFSHORE BUOY REPORTS

STATION/POSITION SKY/WX   TEMP    WIND        PRES    VSBY  SWELL
                          AIR SEA DIR/SP/G                  HT/PER/DIR
                          (F)     (DEG/KT/KT) (MB)    (MI)  (FT/S/D)
TANNER BANKS               64 64  300/  6/  6 1016.9F         8/310/12
S CLEMENTE BASIN           70 69  330/  4/  6 1016.8R         5/170/17
SAN NICOLAS IS.               62                N/A           7/300/13
SO. S. ROSA ISLA           64 61  300/  4/  6 1016.9F         8/170/17
W. S. BARBARA CH           60     310/  2/  4 1017.1
M. S. BARBARA CH           63     360/  2/  4 1018.2
S. MONICA BASIN                    20/  2/  2 1016.5
S PEDRO CHANNEL               67                N/A           3/170/17
CMP PENDLETON NS              67                N/A           3/210/17
OCEANSIDE OFFSHR              69                N/A           3/190/17
TORREY PINES OTR              69                N/A           3/190/18
SAN DIEGO BAY                 73              1017.4R
POINT LOMA SOUTH              68                N/A           5/190/17

$$





USA.gov is the U.S. government's official web portal to all federal, state and local government web resources and services.